#�ϑ�����,���ϕ���,���ϕ���,�ő啗��,�ő啗����������,�ő�u�ԕ���,�ő�u�ԕ�����������
#(�N����),(m/s)   ,(16����),(m/s)   ,(16����)        ,(m/s)       ,(16����)            
2016/11/16 0:01,0.7,14,0.8,3,2.9,2
2016/11/16 0:02,0.7,13,0.7,3,0.6,10
2016/11/16 0:03,0.7,12,0.7,3,1.4,6
2016/11/16 0:04,0.8,11,0.8,4,1.9,9
2016/11/16 0:05,0.8,8,0.8,4,2.2,7
2016/11/16 0:06,0.8,9,0.9,4,1.4,9
2016/11/16 0:07,0.9,9,0.9,5,1.8,8
2016/11/16 0:08,1,9,1,9,3,9
2016/11/16 0:09,1.2,8,1.2,8,4.4,8
2016/11/16 0:10,1.3,9,1.3,8,4.5,9
2016/11/16 0:11,1.3,8,1.3,8,3.7,8
2016/11/16 0:12,1.3,8,1.3,8,2.7,4
2016/11/16 0:13,1.3,8,1.3,8,2.5,4
2016/11/16 0:14,1.3,8,1.3,8,2.2,5
2016/11/16 0:15,1.4,8,1.4,8,2.4,5
2016/11/16 0:16,1.4,7,1.4,8,2.7,6
2016/11/16 0:17,1.4,7,1.4,8,1.1,11
2016/11/16 0:18,1.2,7,1.4,8,0.6,1
2016/11/16 0:19,1.1,5,1.2,8,1.9,16
2016/11/16 0:20,1,3,1.1,8,1.9,15
2016/11/16 0:21,1,2,1,8,2.9,15
2016/11/16 0:22,1,1,1,8,1.5,14
2016/11/16 0:23,1,1,1,8,1.9,9
2016/11/16 0:24,1,1,1,8,1.6,3
2016/11/16 0:25,1,1,1,8,2.9,2
2016/11/16 0:26,1.2,1,1.2,7,5.6,2
2016/11/16 0:27,1.5,1,1.5,1,7.4,2
2016/11/16 0:28,1.8,1,1.8,1,7,1
2016/11/16 0:29,2.1,1,2.1,1,6.3,2
2016/11/16 0:30,2.2,2,2.2,2,4.9,16
2016/11/16 0:31,2.2,2,2.2,2,2,1
2016/11/16 0:32,2.4,2,2.4,2,4.3,2
2016/11/16 0:33,2.5,2,2.5,2,5,2
2016/11/16 0:34,2.9,2,2.9,2,6.5,1
2016/11/16 0:35,2.9,1,3,2,5.7,16
2016/11/16 0:36,2.7,1,2.9,2,1.5,2
2016/11/16 0:37,2.6,2,2.7,2,4.3,2
2016/11/16 0:38,2.5,2,2.6,2,5.1,3
2016/11/16 0:39,2.4,2,2.5,2,5.1,3
2016/11/16 0:40,2.7,2,2.7,2,7.4,15
2016/11/16 0:41,3.2,2,3.2,2,9.7,15
2016/11/16 0:42,3.2,1,3.3,1,5.6,16
2016/11/16 0:43,3.1,2,3.2,1,3.9,3
2016/11/16 0:44,2.9,2,3.1,1,3.1,3
2016/11/16 0:45,3,2,3,1,3.8,3
2016/11/16 0:46,3.3,2,3.3,1,4.3,4
2016/11/16 0:47,3.3,2,3.3,1,4.4,4
2016/11/16 0:48,3.2,2,3.3,1,4.1,4
2016/11/16 0:49,3.3,3,3.3,1,4.8,3
2016/11/16 0:50,3.1,3,3.3,1,4.2,4
2016/11/16 0:51,2.7,3,3,1,4.3,2
2016/11/16 0:52,2.6,3,2.7,2,3.7,16
2016/11/16 0:53,2.6,3,2.7,2,2.4,15
2016/11/16 0:54,2.4,3,2.6,2,1.1,16
2016/11/16 0:55,2.2,3,2.4,2,1.1,1
2016/11/16 0:56,1.9,2,2.1,2,1.3,3
2016/11/16 0:57,1.7,2,1.9,2,1.1,8
2016/11/16 0:58,1.5,2,1.6,3,2,10
2016/11/16 0:59,1.3,2,1.5,3,2.7,9
2016/11/16 1:00,1.2,1,1.3,3,2.2,8
2016/11/16 1:01,1,2,1.2,3,0.9,9
2016/11/16 1:02,0.8,3,1,3,0.5,2
2016/11/16 1:03,0.7,4,0.8,3,0.9,14
2016/11/16 1:04,0.6,6,0.7,3,0.9,7
2016/11/16 1:05,0.6,6,0.6,2,0.9,7
2016/11/16 1:06,0.6,6,0.6,2,1.3,2
2016/11/16 1:07,0.6,6,0.6,2,0.6,3
2016/11/16 1:08,0.7,6,0.7,2,3,9
2016/11/16 1:09,0.7,5,0.7,2,2.4,9
2016/11/16 1:10,0.7,5,0.7,1,1.9,10
2016/11/16 1:11,0.9,5,0.9,2,6,4
2016/11/16 1:12,1,5,1,5,3.9,1
2016/11/16 1:13,1.1,5,1.1,5,3,5
2016/11/16 1:14,1.3,5,1.3,5,3.1,6
2016/11/16 1:15,1.5,4,1.5,5,4.1,3
2016/11/16 1:16,1.6,4,1.6,4,2.5,2
2016/11/16 1:17,1.6,4,1.6,4,1.4,1
2016/11/16 1:18,1.4,3,1.6,4,0.6,15
2016/11/16 1:19,1.3,3,1.4,4,0.1,16
2016/11/16 1:20,1.3,3,1.3,4,1.5,4
2016/11/16 1:21,1.2,3,1.3,4,2.1,6
2016/11/16 1:22,1.2,4,1.2,4,2.4,9
2016/11/16 1:23,1.1,3,1.2,4,1,9
2016/11/16 1:24,1,3,1.1,4,2,5
2016/11/16 1:25,1,4,1.1,4,2.6,4
2016/11/16 1:26,0.9,4,0.9,4,3.1,1
2016/11/16 1:27,0.9,4,0.9,4,1.8,1
2016/11/16 1:28,1.1,3,1.1,3,2.1,16
2016/11/16 1:29,1.2,3,1.2,3,2,15
2016/11/16 1:30,1.2,2,1.2,3,1.6,2
2016/11/16 1:31,1.1,2,1.2,3,1.6,2
2016/11/16 1:32,1.2,2,1.2,4,2.4,5
2016/11/16 1:33,1.3,3,1.3,2,2.7,4
2016/11/16 1:34,1.4,3,1.4,3,3.2,4
2016/11/16 1:35,1.5,3,1.5,3,4.1,5
2016/11/16 1:36,1.6,3,1.6,3,3.8,3
2016/11/16 1:37,1.9,4,1.9,4,6,4
2016/11/16 1:38,1.9,4,1.9,4,3.8,4
2016/11/16 1:39,1.9,4,1.9,4,2.6,12
2016/11/16 1:40,1.9,5,1.9,4,2,12
2016/11/16 1:41,1.8,5,1.9,4,0.8,16
2016/11/16 1:42,1.7,4,1.8,4,1.4,15
2016/11/16 1:43,1.6,3,1.7,4,1.3,14
2016/11/16 1:44,1.4,1,1.6,4,1.1,12
2016/11/16 1:45,1.2,15,1.4,4,1.5,14
2016/11/16 1:46,1,13,1.1,4,0.9,11
2016/11/16 1:47,0.7,13,1,4,1,10
2016/11/16 1:48,0.6,12,0.7,4,1.4,9
2016/11/16 1:49,0.6,12,0.6,4,2.9,11
2016/11/16 1:50,0.6,12,0.6,5,2.7,11
2016/11/16 1:51,0.7,12,0.7,5,2.4,7
2016/11/16 1:52,0.8,11,0.8,4,2.1,7
2016/11/16 1:53,0.9,10,0.9,3,1.4,8
2016/11/16 1:54,0.9,10,0.9,1,1.5,7
2016/11/16 1:55,0.8,10,0.9,15,0.5,12
2016/11/16 1:56,0.9,10,0.9,13,1.6,15
2016/11/16 1:57,1,10,1,10,1.8,1
2016/11/16 1:58,1,10,1,10,0.8,16
2016/11/16 1:59,0.8,7,1,10,0.5,3
2016/11/16 2:00,0.7,4,0.8,10,0.6,2
2016/11/16 2:01,0.7,1,0.7,10,1.1,16
2016/11/16 2:02,0.6,1,0.7,10,1.9,13
2016/11/16 2:03,0.9,16,0.9,10,4.9,8
2016/11/16 2:04,1,1,1,10,3.3,6
2016/11/16 2:05,1.2,1,1.2,1,4.1,16
2016/11/16 2:06,1.4,1,1.4,1,4.4,15
2016/11/16 2:07,1.4,1,1.4,1,2.6,16
2016/11/16 2:08,1.5,1,1.5,1,4.4,15
2016/11/16 2:09,1.6,16,1.6,16,3.2,16
2016/11/16 2:10,1.8,15,1.8,15,1.6,14
2016/11/16 2:11,1.8,15,1.8,15,2.9,15
2016/11/16 2:12,1.8,15,1.9,15,2.7,15
2016/11/16 2:13,1.7,15,1.8,15,2.1,12
2016/11/16 2:14,1.6,15,1.7,15,1.5,13
2016/11/16 2:15,1.5,14,1.6,15,2,12
2016/11/16 2:16,1.3,14,1.4,15,1.8,15
2016/11/16 2:17,1.2,14,1.3,15,1,15
2016/11/16 2:18,1.1,14,1.2,15,0.9,13
2016/11/16 2:19,1.1,14,1.1,15,1.5,12
2016/11/16 2:20,1.1,14,1.1,15,2,8
2016/11/16 2:21,1.1,14,1.1,15,2,16
2016/11/16 2:22,1,14,1,15,2.5,16
2016/11/16 2:23,1,14,1,15,1.6,16
2016/11/16 2:24,1,14,1,15,1.1,16
2016/11/16 2:25,0.9,14,1,14,1,15
2016/11/16 2:26,0.8,14,0.9,14,0.6,2
2016/11/16 2:27,0.9,15,0.9,14,2.1,15
2016/11/16 2:28,1,15,1,14,1.8,15
2016/11/16 2:29,0.9,15,1,14,1.8,12
2016/11/16 2:30,0.9,15,0.9,14,2.1,9
2016/11/16 2:31,0.8,14,0.9,14,1.1,11
2016/11/16 2:32,0.7,14,0.8,14,0.6,1
2016/11/16 2:33,0.7,14,0.7,14,1.1,2
2016/11/16 2:34,0.6,15,0.6,14,0.8,2
2016/11/16 2:35,0.6,1,0.6,15,0.9,6
2016/11/16 2:36,0.7,13,0.7,15,0.9,7
2016/11/16 2:37,0.6,9,0.6,15,0.3,9
2016/11/16 2:38,0.4,9,0.5,15,1.3,13
2016/11/16 2:39,0.5,9,0.5,15,1.8,11
2016/11/16 2:40,0.5,10,0.5,15,1.1,12
2016/11/16 2:41,0.6,11,0.6,14,2,14
2016/11/16 2:42,0.6,12,0.6,14,1.3,13
2016/11/16 2:43,0.6,11,0.6,1,1,1
2016/11/16 2:44,0.6,12,0.6,1,1,15
2016/11/16 2:45,0.6,12,0.6,1,1.1,12
2016/11/16 2:46,0.7,12,0.7,12,1.5,11
2016/11/16 2:47,0.8,13,0.8,12,1.5,11
2016/11/16 2:48,0.9,13,0.9,13,1.6,11
2016/11/16 2:49,0.9,12,0.9,13,2,11
2016/11/16 2:50,0.9,12,0.9,13,1.8,9
2016/11/16 2:51,0.8,12,0.9,13,1.3,8
2016/11/16 2:52,0.9,11,0.9,13,1.8,10
2016/11/16 2:53,0.9,11,0.9,13,1,8
2016/11/16 2:54,1,11,1,11,1.3,8
2016/11/16 2:55,1,10,1,11,2.2,9
2016/11/16 2:56,1,10,1,11,1.9,10
2016/11/16 2:57,0.9,10,1,11,1,9
2016/11/16 2:58,0.9,9,0.9,11,1.3,8
2016/11/16 2:59,0.8,9,0.9,11,1.3,6
2016/11/16 3:00,0.8,9,0.8,11,1.4,6
2016/11/16 3:01,0.8,9,0.8,11,1.9,9
2016/11/16 3:02,0.8,8,0.8,11,2.5,9
2016/11/16 3:03,0.9,8,0.9,11,2.2,9
2016/11/16 3:04,0.9,8,0.9,11,2.7,10
2016/11/16 3:05,0.9,8,0.9,10,2,10
2016/11/16 3:06,1,9,1,10,1.6,11
2016/11/16 3:07,1,9,1,8,1.5,12
2016/11/16 3:08,1.1,9,1.1,9,2.5,9
2016/11/16 3:09,1.1,10,1.1,9,2.2,9
2016/11/16 3:10,1.2,10,1.2,10,2.6,12
2016/11/16 3:11,1.3,11,1.3,10,1.8,12
2016/11/16 3:12,1.3,11,1.3,10,1.5,15
2016/11/16 3:13,1.3,12,1.3,10,1.5,15
2016/11/16 3:14,1.3,12,1.3,10,2,1
2016/11/16 3:15,1.4,13,1.4,13,3.8,16
2016/11/16 3:16,1.5,14,1.5,14,2.9,16
2016/11/16 3:17,1.5,15,1.5,14,2.5,16
2016/11/16 3:18,1.5,15,1.5,14,2.4,3
2016/11/16 3:19,1.5,16,1.6,16,2.2,2
2016/11/16 3:20,1.4,16,1.5,16,1,2
2016/11/16 3:21,1.2,1,1.4,16,0.1,12
2016/11/16 3:22,1.2,1,1.2,16,1.4,15
2016/11/16 3:23,1.1,1,1.2,16,0.9,14
2016/11/16 3:24,1.1,16,1.1,16,2.2,9
2016/11/16 3:25,0.9,1,1.1,16,3.1,9
2016/11/16 3:26,0.8,1,0.9,16,2.6,9
2016/11/16 3:27,0.8,9,0.8,16,3.3,9
2016/11/16 3:28,0.8,10,0.9,16,3,10
2016/11/16 3:29,0.8,9,0.8,16,1.8,11
2016/11/16 3:30,0.8,10,0.8,16,2.4,10
2016/11/16 3:31,1,10,1,1,3.1,9
2016/11/16 3:32,1,9,1,1,1.6,10
2016/11/16 3:33,1.1,9,1.1,1,1.8,8
2016/11/16 3:34,1,9,1.1,16,1.6,9
2016/11/16 3:35,1,10,1,10,0.6,13
2016/11/16 3:36,0.9,10,1,10,0.9,11
2016/11/16 3:37,0.8,11,0.9,10,0.8,12
2016/11/16 3:38,0.7,10,0.8,10,0.8,11
2016/11/16 3:39,0.7,11,0.7,10,1.3,3
2016/11/16 3:40,0.7,12,0.7,10,2,2
2016/11/16 3:41,0.7,13,0.7,10,3.1,3
2016/11/16 3:42,0.8,2,0.8,10,2.7,3
2016/11/16 3:43,0.8,3,0.8,9,1.8,4
2016/11/16 3:44,0.8,2,0.8,9,1.6,2
2016/11/16 3:45,0.8,3,0.8,10,1.1,4
2016/11/16 3:46,1,3,1,3,3.7,3
2016/11/16 3:47,1.2,4,1.2,4,4.4,3
2016/11/16 3:48,1.4,3,1.4,3,4.5,15
2016/11/16 3:49,1.4,3,1.5,3,2.5,15
2016/11/16 3:50,1.5,3,1.5,3,3.5,16
2016/11/16 3:51,1.5,2,1.5,3,3.5,16
2016/11/16 3:52,1.5,2,1.6,2,4.1,15
2016/11/16 3:53,1.7,1,1.7,1,3.7,1
2016/11/16 3:54,1.6,1,1.7,1,1.4,1
2016/11/16 3:55,1.6,1,1.6,1,0.8,5
2016/11/16 3:56,1.5,1,1.6,1,0.8,6
2016/11/16 3:57,1.3,1,1.5,1,1.3,16
2016/11/16 3:58,1.2,1,1.3,1,1.1,4
2016/11/16 3:59,1.1,2,1.1,1,0.6,5
2016/11/16 4:00,0.9,2,1.1,1,0,10
2016/11/16 4:01,0.7,2,0.9,1,0.5,15
2016/11/16 4:02,0.7,2,0.7,1,2.1,1
2016/11/16 4:03,0.5,2,0.7,1,1,13
2016/11/16 4:04,0.6,2,0.6,1,2,16
2016/11/16 4:05,0.8,1,0.8,1,3.9,1
2016/11/16 4:06,1,1,1,1,4.2,2
2016/11/16 4:07,1,1,1.1,1,3.8,1
2016/11/16 4:08,1,16,1,2,1.8,15
2016/11/16 4:09,1.1,16,1.1,2,1.6,15
2016/11/16 4:10,1.2,1,1.2,1,2.1,3
2016/11/16 4:11,1.3,1,1.3,1,2,3
2016/11/16 4:12,1.4,1,1.4,1,2.4,3
2016/11/16 4:13,1.5,2,1.5,2,2.7,4
2016/11/16 4:14,1.5,3,1.5,2,3,5
2016/11/16 4:15,1.4,3,1.5,2,2.1,4
2016/11/16 4:16,1.3,3,1.4,2,2.2,4
2016/11/16 4:17,1.3,3,1.3,2,3,16
2016/11/16 4:18,1.2,3,1.3,2,0.4,5
2016/11/16 4:19,1.2,4,1.2,2,1.5,2
2016/11/16 4:20,1.3,4,1.3,2,3.2,3
2016/11/16 4:21,1.3,4,1.3,2,2.9,4
2016/11/16 4:22,1.2,3,1.2,2,1.4,16
2016/11/16 4:23,1.1,3,1.2,2,2.1,3
2016/11/16 4:24,1.1,2,1.1,3,2.4,1
2016/11/16 4:25,1.1,2,1.1,3,2.6,16
2016/11/16 4:26,1.2,2,1.2,3,2.6,15
2016/11/16 4:27,1.1,1,1.2,3,2.6,16
2016/11/16 4:28,1.3,1,1.3,4,2.5,16
2016/11/16 4:29,1.3,1,1.4,1,2.6,16
2016/11/16 4:30,1.4,1,1.4,1,4.7,2
2016/11/16 4:31,1.6,1,1.6,1,5.2,4
2016/11/16 4:32,1.8,2,1.8,2,5.7,3
2016/11/16 4:33,2,1,2,1,4.9,3
2016/11/16 4:34,2.1,2,2.1,1,4.3,2
2016/11/16 4:35,2.2,2,2.2,2,5,3
2016/11/16 4:36,2.2,2,2.2,2,2.7,5
2016/11/16 4:37,2.3,3,2.3,3,2.5,4
2016/11/16 4:38,2.1,3,2.3,3,1.5,2
2016/11/16 4:39,2.1,3,2.1,3,1.9,16
2016/11/16 4:40,2.1,3,2.2,3,3,2
2016/11/16 4:41,2,2,2.1,3,2.2,2
2016/11/16 4:42,1.8,2,2,3,3.7,1
2016/11/16 4:43,1.8,2,1.8,3,4.5,3
2016/11/16 4:44,1.8,3,1.8,3,3.8,3
2016/11/16 4:45,1.7,2,1.8,3,4.1,3
2016/11/16 4:46,1.8,2,1.8,3,4.8,4
2016/11/16 4:47,1.9,2,1.9,3,4.8,5
2016/11/16 4:48,2.1,2,2.1,3,3.9,3
2016/11/16 4:49,2.3,3,2.3,2,3.9,2
2016/11/16 4:50,2.4,3,2.4,3,6.8,3
2016/11/16 4:51,2.6,3,2.6,3,4.9,3
2016/11/16 4:52,2.6,3,2.7,3,3.2,1
2016/11/16 4:53,2.6,3,2.7,3,4.2,3
2016/11/16 4:54,2.6,2,2.6,3,2.9,2
2016/11/16 4:55,2.6,2,2.6,3,4.5,1
2016/11/16 4:56,2.7,2,2.7,3,5.6,3
2016/11/16 4:57,2.6,2,2.7,3,3.3,1
2016/11/16 4:58,2.5,2,2.6,3,3.6,1
2016/11/16 4:59,2.5,1,2.5,3,4.1,16
2016/11/16 5:00,2.2,1,2.5,3,2.2,1
2016/11/16 5:01,2.2,1,2.2,3,3.5,2
2016/11/16 5:02,2.3,1,2.3,3,4.8,3
2016/11/16 5:03,2.2,1,2.3,2,4.2,3
2016/11/16 5:04,2.2,1,2.2,2,2,1
2016/11/16 5:05,2.1,1,2.2,2,3,16
2016/11/16 5:06,2.1,1,2.1,2,5.7,1
2016/11/16 5:07,2.2,2,2.2,2,4.9,1
2016/11/16 5:08,2.3,2,2.4,2,3.9,5
2016/11/16 5:09,2.2,2,2.3,1,2.7,3
2016/11/16 5:10,2.2,2,2.2,2,3.6,4
2016/11/16 5:11,2.4,2,2.4,2,6.2,2
2016/11/16 5:12,2.3,2,2.4,2,4.2,2
2016/11/16 5:13,2.3,2,2.3,2,3.9,15
2016/11/16 5:14,2.4,2,2.4,2,3.7,16
2016/11/16 5:15,2.4,2,2.4,2,4.2,15
2016/11/16 5:16,2.4,1,2.4,2,4.1,16
2016/11/16 5:17,2.4,1,2.4,2,3.8,16
2016/11/16 5:18,2.3,16,2.3,2,2.4,14
2016/11/16 5:19,2.3,16,2.3,2,2,14
2016/11/16 5:20,2.2,16,2.3,2,1.3,5
2016/11/16 5:21,2,16,2.2,2,2.6,15
2016/11/16 5:22,1.9,16,1.9,2,2.5,16
2016/11/16 5:23,1.7,15,1.9,2,1.9,15
2016/11/16 5:24,1.6,15,1.7,2,1.3,2
2016/11/16 5:25,1.4,16,1.6,2,1.3,1
2016/11/16 5:26,1.3,16,1.5,1,1.9,2
2016/11/16 5:27,1.1,16,1.3,1,1.8,1
2016/11/16 5:28,1,16,1.1,16,1.6,2
2016/11/16 5:29,0.9,1,1,16,1.3,1
2016/11/16 5:30,0.9,1,0.9,16,0.8,4
2016/11/16 5:31,0.8,2,0.9,16,0.8,4
2016/11/16 5:32,0.7,2,0.8,16,0.6,3
2016/11/16 5:33,0.6,2,0.7,15,0.3,8
2016/11/16 5:34,0.6,2,0.6,15,0.8,14
2016/11/16 5:35,0.6,2,0.6,16,1,14
2016/11/16 5:36,0.5,2,0.6,16,0.9,12
2016/11/16 5:37,0.5,1,0.5,16,1,1
2016/11/16 5:38,0.6,1,0.6,16,2,16
2016/11/16 5:39,0.6,16,0.6,1,2.2,16
2016/11/16 5:40,0.7,15,0.7,1,1.9,1
2016/11/16 5:41,0.8,15,0.8,2,2,15
2016/11/16 5:42,0.8,14,0.8,15,1.3,15
2016/11/16 5:43,0.8,14,0.8,15,0.8,5
2016/11/16 5:44,0.8,14,0.8,15,0.8,2
2016/11/16 5:45,0.8,15,0.8,15,2.2,16
2016/11/16 5:46,1,15,1,15,3,15
2016/11/16 5:47,1.1,16,1.1,16,2.9,15
2016/11/16 5:48,1.1,15,1.1,16,2.1,15
2016/11/16 5:49,1.2,15,1.2,15,1.9,14
2016/11/16 5:50,1.2,14,1.2,15,1.5,13
2016/11/16 5:51,1.2,14,1.2,15,1.1,12
2016/11/16 5:52,1.2,14,1.2,15,1.4,12
2016/11/16 5:53,1.2,14,1.3,14,1.3,12
2016/11/16 5:54,1.3,14,1.3,14,1.3,11
2016/11/16 5:55,1.3,13,1.4,13,1.3,11
2016/11/16 5:56,1.1,12,1.3,13,0.9,10
2016/11/16 5:57,1,12,1.1,13,1,11
2016/11/16 5:58,1,12,1,13,1.8,11
2016/11/16 5:59,1.1,11,1.1,13,2.7,10
2016/11/16 6:00,1.1,11,1.1,13,2.7,10
2016/11/16 6:01,1.1,11,1.1,13,2.4,2
2016/11/16 6:02,1.1,11,1.2,13,2.5,1
2016/11/16 6:03,1.2,11,1.2,13,2.4,16
2016/11/16 6:04,1.2,12,1.2,13,1.5,2
2016/11/16 6:05,1.2,13,1.2,13,1.9,2
2016/11/16 6:06,1.3,15,1.3,15,1.9,1
2016/11/16 6:07,1.4,1,1.4,16,2.4,3
2016/11/16 6:08,1.3,1,1.4,16,2,2
2016/11/16 6:09,1.2,1,1.3,16,1.5,3
2016/11/16 6:10,1.1,2,1.2,16,1.3,2
2016/11/16 6:11,1.2,2,1.2,16,3.7,7
2016/11/16 6:12,1.3,2,1.3,16,4.7,6
2016/11/16 6:13,1.3,3,1.3,16,3.7,8
2016/11/16 6:14,1.6,4,1.6,4,4.7,7
2016/11/16 6:15,1.7,5,1.7,4,4.7,7
2016/11/16 6:16,1.7,5,1.7,4,3.1,5
2016/11/16 6:17,1.8,6,1.8,6,3.8,9
2016/11/16 6:18,1.9,6,1.9,6,4.2,8
2016/11/16 6:19,2.1,6,2.1,6,4.9,5
2016/11/16 6:20,2.2,6,2.2,6,4.1,5
2016/11/16 6:21,2.3,6,2.3,6,4.2,5
2016/11/16 6:22,2.2,6,2.3,6,2.5,6
2016/11/16 6:23,2.1,5,2.2,6,2.2,2
2016/11/16 6:24,1.9,5,2.1,6,1.4,16
2016/11/16 6:25,1.8,4,1.9,6,2.4,16
2016/11/16 6:26,1.8,3,1.9,6,1.9,14
2016/11/16 6:27,1.7,3,1.8,6,1.3,2
2016/11/16 6:28,1.5,3,1.6,6,1.1,4
2016/11/16 6:29,1.3,2,1.5,6,0.8,3
2016/11/16 6:30,1.1,2,1.2,6,0.8,3
2016/11/16 6:31,0.9,2,1.1,6,1.3,15
2016/11/16 6:32,0.9,2,0.9,6,2.4,16
2016/11/16 6:33,0.8,2,0.9,5,1.8,16
2016/11/16 6:34,0.9,1,0.9,5,2.2,1
2016/11/16 6:35,1,2,1,4,3.8,16
2016/11/16 6:36,1,2,1,3,3.5,16
2016/11/16 6:37,1,1,1,3,1,1
2016/11/16 6:38,1,1,1,3,0.5,13
2016/11/16 6:39,1,16,1,2,1.5,1
2016/11/16 6:40,1.1,16,1.1,2,1.9,5
2016/11/16 6:41,1.2,1,1.2,1,2.9,6
2016/11/16 6:42,1.1,1,1.2,1,1.9,4
2016/11/16 6:43,1.2,1,1.2,1,2.4,15
2016/11/16 6:44,1.3,1,1.3,1,2.5,14
2016/11/16 6:45,1.2,1,1.3,1,2.1,15
2016/11/16 6:46,1.1,16,1.2,1,1.9,14
2016/11/16 6:47,1.2,16,1.2,1,1.3,14
2016/11/16 6:48,1.3,16,1.3,1,1.3,14
2016/11/16 6:49,1.4,15,1.4,15,2.4,13
2016/11/16 6:50,1.4,15,1.4,15,2.2,13
2016/11/16 6:51,1.4,14,1.4,15,1.8,16
2016/11/16 6:52,1.4,14,1.4,15,1.8,16
2016/11/16 6:53,1.4,14,1.5,14,2,15
2016/11/16 6:54,1.3,14,1.4,14,1.9,15
2016/11/16 6:55,1.3,14,1.3,14,1,15
2016/11/16 6:56,1.1,14,1.2,14,0.4,11
2016/11/16 6:57,1.2,14,1.2,14,1.9,15
2016/11/16 6:58,1.2,15,1.2,14,2.4,1
2016/11/16 6:59,1.2,15,1.2,14,1.5,16
2016/11/16 7:00,1.1,16,1.2,14,1.5,2
2016/11/16 7:01,1,16,1.1,14,1,1
2016/11/16 7:02,1,16,1,14,1,2
2016/11/16 7:03,0.9,16,1,14,0.9,16
2016/11/16 7:04,0.8,1,0.8,14,2.7,4
2016/11/16 7:05,1,2,1,14,3,5
2016/11/16 7:06,1.1,2,1.1,14,2.5,5
2016/11/16 7:07,1.1,3,1.2,14,1.9,6
2016/11/16 7:08,1.1,4,1.1,15,1.8,4
2016/11/16 7:09,1.1,4,1.1,15,1.8,5
2016/11/16 7:10,1.1,5,1.1,2,1.4,7
2016/11/16 7:11,1.1,5,1.1,2,1.3,7
2016/11/16 7:12,1.1,6,1.1,2,1.1,7
2016/11/16 7:13,1.1,6,1.1,2,1,9
2016/11/16 7:14,1.1,6,1.1,2,1,9
2016/11/16 7:15,0.9,7,1.1,2,0.6,9
2016/11/16 7:16,0.7,7,0.8,2,1.5,1
2016/11/16 7:17,0.7,7,0.8,3,1.5,3
2016/11/16 7:18,0.7,7,0.7,4,1.1,1
2016/11/16 7:19,0.6,7,0.7,4,1.4,1
2016/11/16 7:20,0.7,6,0.7,5,1.8,16
2016/11/16 7:21,0.8,4,0.8,5,2.2,16
2016/11/16 7:22,0.8,2,0.8,6,2,16
2016/11/16 7:23,0.9,1,0.9,6,1.5,16
2016/11/16 7:24,0.8,1,0.9,6,0.8,13
2016/11/16 7:25,0.9,1,0.9,2,1.3,8
2016/11/16 7:26,0.9,1,0.9,2,0.9,7
2016/11/16 7:27,0.8,1,0.9,2,1.4,7
2016/11/16 7:28,0.8,1,0.8,2,1,9
2016/11/16 7:29,0.7,15,0.8,2,0.4,9
2016/11/16 7:30,0.6,10,0.7,2,0.1,12
2016/11/16 7:31,0.5,10,0.6,2,0.8,9
2016/11/16 7:32,0.4,10,0.5,2,1.5,9
2016/11/16 7:33,0.3,9,0.4,1,0.8,8
2016/11/16 7:34,0.3,9,0.3,1,0.4,16
2016/11/16 7:35,0.3,10,0.3,1,0.9,2
2016/11/16 7:36,0.3,10,0.3,1,1.1,3
2016/11/16 7:37,0.4,10,0.4,1,2.4,7
2016/11/16 7:38,0.4,12,0.4,1,1.5,8
2016/11/16 7:39,0.5,12,0.5,10,2.2,10
2016/11/16 7:40,0.6,13,0.6,10,2.2,11
2016/11/16 7:41,0.8,12,0.8,12,2.1,12
2016/11/16 7:42,0.9,13,0.9,13,2,12
2016/11/16 7:43,1,12,1,12,1.8,10
2016/11/16 7:44,1.1,12,1.1,12,1.5,12
2016/11/16 7:45,1.2,12,1.2,12,1.6,15
2016/11/16 7:46,1.2,12,1.2,12,2,15
2016/11/16 7:47,1.2,13,1.2,12,2.9,16
2016/11/16 7:48,1.3,13,1.3,13,3.2,14
2016/11/16 7:49,1.4,13,1.4,13,2.4,15
2016/11/16 7:50,1.4,14,1.4,13,2.6,16
2016/11/16 7:51,1.4,14,1.4,13,2.1,15
2016/11/16 7:52,1.4,15,1.4,13,2.2,16
2016/11/16 7:53,1.4,15,1.4,13,3,15
2016/11/16 7:54,1.5,15,1.5,15,2.4,14
2016/11/16 7:55,1.5,15,1.5,15,2.7,15
2016/11/16 7:56,1.7,15,1.7,15,4.1,15
2016/11/16 7:57,1.8,16,1.8,16,4.1,16
2016/11/16 7:58,1.8,16,1.9,16,3.2,1
2016/11/16 7:59,1.7,16,1.8,16,1.8,16
2016/11/16 8:00,1.7,16,1.7,16,2.1,15
2016/11/16 8:01,1.7,16,1.7,16,1.3,15
2016/11/16 8:02,1.5,16,1.7,16,0.4,14
2016/11/16 8:03,1.4,15,1.5,16,0.9,13
2016/11/16 8:04,1.3,15,1.4,16,0.8,9
2016/11/16 8:05,1.2,15,1.3,16,0.6,12
2016/11/16 8:06,0.9,14,1.2,16,0.9,10
2016/11/16 8:07,0.6,14,0.9,16,1,2
2016/11/16 8:08,0.5,14,0.6,16,1.5,3
2016/11/16 8:09,0.5,14,0.6,16,1.5,3
2016/11/16 8:10,0.4,14,0.5,16,0.8,3
2016/11/16 8:11,0.4,14,0.4,16,0.6,13
2016/11/16 8:12,0.4,10,0.4,16,1.9,8
2016/11/16 8:13,0.5,7,0.5,15,2.5,8
2016/11/16 8:14,0.6,6,0.6,15,2,10
2016/11/16 8:15,0.7,6,0.7,15,1.5,6
2016/11/16 8:16,0.7,6,0.7,14,1.3,10
2016/11/16 8:17,0.8,7,0.8,6,2.1,11
2016/11/16 8:18,0.9,8,0.9,8,2.2,10
2016/11/16 8:19,0.9,9,0.9,8,1.9,9
2016/11/16 8:20,0.9,10,0.9,8,0.3,11
2016/11/16 8:21,0.8,10,0.9,8,0.6,11
2016/11/16 8:22,0.8,10,0.8,8,0.8,4
2016/11/16 8:23,0.8,9,0.8,8,2.6,4
2016/11/16 8:24,0.9,9,0.9,8,2.2,2
2016/11/16 8:25,0.9,10,0.9,8,3.3,13
2016/11/16 8:26,1.2,11,1.2,11,3.2,14
2016/11/16 8:27,1.2,12,1.2,11,2.9,14
2016/11/16 8:28,1.2,15,1.2,11,2,3
2016/11/16 8:29,1.2,1,1.2,11,2.5,5
2016/11/16 8:30,1.3,2,1.3,2,2,4
2016/11/16 8:31,1.5,2,1.5,2,4.8,3
2016/11/16 8:32,1.7,2,1.7,2,2.7,3
2016/11/16 8:33,1.7,3,1.7,2,3.7,7
2016/11/16 8:34,1.8,3,1.8,3,4.2,7
2016/11/16 8:35,1.7,3,1.8,3,3,2
2016/11/16 8:36,1.6,4,1.7,3,1.5,14
2016/11/16 8:37,1.4,4,1.6,3,1.9,15
2016/11/16 8:38,1.5,4,1.5,3,3.3,16
2016/11/16 8:39,1.5,3,1.6,3,3.5,16
2016/11/16 8:40,1.5,2,1.5,3,1.8,16
2016/11/16 8:41,1.4,1,1.5,3,1.9,16
2016/11/16 8:42,1.3,16,1.4,3,1.6,1
2016/11/16 8:43,1.2,16,1.3,3,1.3,16
2016/11/16 8:44,1.1,16,1.1,3,3.1,5
2016/11/16 8:45,1.3,1,1.3,3,4.5,5
2016/11/16 8:46,1.4,1,1.4,4,3,3
2016/11/16 8:47,1.7,1,1.7,1,7,3
2016/11/16 8:48,1.8,2,1.9,1,5.7,3
2016/11/16 8:49,2.2,2,2.2,2,6.7,3
2016/11/16 8:50,2.5,2,2.5,2,6,2
2016/11/16 8:51,2.8,2,2.8,2,5.8,1
2016/11/16 8:52,3,2,3,2,4.9,2
2016/11/16 8:53,3.4,2,3.4,2,7.1,16
2016/11/16 8:54,3.4,2,3.4,2,3.5,4
2016/11/16 8:55,3.5,2,3.5,2,6.1,2
2016/11/16 8:56,3.6,2,3.6,2,4.1,2
2016/11/16 8:57,3.4,2,3.6,2,2.7,16
2016/11/16 8:58,3.2,2,3.4,2,2.2,3
2016/11/16 8:59,2.8,2,3.2,2,1.5,5
2016/11/16 9:00,2.5,2,2.8,2,1.4,2
2016/11/16 9:01,2.2,2,2.5,2,1.9,3
2016/11/16 9:02,2,3,2.2,2,1.6,5
2016/11/16 9:03,1.7,3,2,2,2.1,7
2016/11/16 9:04,1.6,3,1.7,2,2.2,8
2016/11/16 9:05,1.3,4,1.6,2,2.5,12
2016/11/16 9:06,1.2,5,1.3,2,2.2,8
2016/11/16 9:07,1.3,5,1.3,2,4.1,13
2016/11/16 9:08,1.2,6,1.3,2,2,12
2016/11/16 9:09,1.2,8,1.2,2,1.3,8
2016/11/16 9:10,1.1,9,1.2,2,0.6,11
2016/11/16 9:11,1.1,10,1.1,2,1.3,10
2016/11/16 9:12,1,10,1.1,3,1.6,9
2016/11/16 9:13,0.9,11,1,3,1,8
2016/11/16 9:14,0.9,11,0.9,3,0.8,7
2016/11/16 9:15,0.8,10,0.9,4,1.1,5
2016/11/16 9:16,0.7,9,0.8,5,1.9,5
2016/11/16 9:17,0.7,7,0.7,6,2.9,6
2016/11/16 9:18,0.7,7,0.7,7,1.9,6
2016/11/16 9:19,0.8,6,0.8,8,2.1,5
2016/11/16 9:20,0.9,5,0.9,9,2.9,13
2016/11/16 9:21,1.1,5,1.1,10,4.3,14
2016/11/16 9:22,1.2,5,1.2,5,3.2,11
2016/11/16 9:23,1.3,6,1.3,6,3.3,8
2016/11/16 9:24,1.4,6,1.4,6,3.6,9
2016/11/16 9:25,1.5,7,1.5,7,2.1,7
2016/11/16 9:26,1.5,7,1.5,7,2.6,6
2016/11/16 9:27,1.5,6,1.5,7,2.1,5
2016/11/16 9:28,1.5,6,1.5,7,1.8,3
2016/11/16 9:29,1.4,6,1.4,7,1.6,15
2016/11/16 9:30,1.4,7,1.4,7,2.4,15
2016/11/16 9:31,1.2,7,1.4,7,2,16
2016/11/16 9:32,1.1,2,1.2,7,2.7,15
2016/11/16 9:33,1.1,1,1.1,7,1.3,2
2016/11/16 9:34,1.1,1,1.1,7,3,1
2016/11/16 9:35,1.1,1,1.1,7,2.1,15
2016/11/16 9:36,1.1,16,1.1,7,2.9,3
2016/11/16 9:37,1.1,16,1.1,6,3.3,5
2016/11/16 9:38,1.2,16,1.2,6,6.7,3
2016/11/16 9:39,1.5,2,1.5,1,5.7,5
2016/11/16 9:40,1.6,3,1.6,2,4.8,6
2016/11/16 9:41,1.7,4,1.7,3,2.6,7
2016/11/16 9:42,1.6,4,1.6,3,1.3,16
2016/11/16 9:43,2,4,2,4,8.2,1
2016/11/16 9:44,2.2,3,2.2,3,7.4,16
2016/11/16 9:45,2.3,3,2.3,3,4.7,15
2016/11/16 9:46,2.5,2,2.5,3,5.7,15
2016/11/16 9:47,2.6,2,2.6,2,5.1,16
2016/11/16 9:48,2.5,1,2.7,1,4.3,16
2016/11/16 9:49,2.5,1,2.6,1,5.1,1
2016/11/16 9:50,2.4,1,2.5,1,5.7,1
2016/11/16 9:51,2.7,16,2.7,1,6.9,16
2016/11/16 9:52,3.2,16,3.2,16,8.7,16
2016/11/16 9:53,3.2,16,3.3,16,9.8,16
2016/11/16 9:54,3.2,16,3.2,16,6,2
2016/11/16 9:55,3.2,16,3.2,16,5.7,2
2016/11/16 9:56,3.3,1,3.3,16,5,2
2016/11/16 9:57,3.3,1,3.4,1,5,3
2016/11/16 9:58,3.3,1,3.3,1,3.6,2
2016/11/16 9:59,3.3,1,3.3,1,7.5,1
2016/11/16 10:00,3.7,1,3.7,1,8.5,1
2016/11/16 10:01,3.6,1,3.7,1,6.3,2
2016/11/16 10:02,3.4,1,3.6,1,5.7,16
2016/11/16 10:03,3.2,1,3.4,1,6.1,16
2016/11/16 10:04,3.1,1,3.2,1,3.6,1
2016/11/16 10:05,3.1,1,3.1,1,6.9,2
2016/11/16 10:06,3.1,1,3.2,1,5.4,2
2016/11/16 10:07,3.1,1,3.1,1,4.7,16
2016/11/16 10:08,3.2,1,3.2,1,5.5,2
2016/11/16 10:09,3.3,1,3.3,1,4.9,15
2016/11/16 10:10,3.1,1,3.2,1,5.6,2
2016/11/16 10:11,3,1,3.1,1,4.1,2
2016/11/16 10:12,2.8,1,3,1,3.5,2
2016/11/16 10:13,2.8,1,2.8,1,3.7,2
2016/11/16 10:14,3,1,3,1,5.2,2
2016/11/16 10:15,2.9,1,3,1,4.8,15
2016/11/16 10:16,2.7,1,2.9,1,3.6,16
2016/11/16 10:17,2.7,1,2.7,1,6.2,16
2016/11/16 10:18,2.6,1,2.7,1,4.4,1
2016/11/16 10:19,2.7,1,2.7,1,6.2,1
2016/11/16 10:20,2.8,1,2.9,1,6.4,3
2016/11/16 10:21,2.9,1,2.9,1,6.2,1
2016/11/16 10:22,3.1,1,3.1,1,7,16
2016/11/16 10:23,3.1,1,3.1,1,4.3,1
2016/11/16 10:24,3,1,3.1,1,3.5,1
2016/11/16 10:25,2.9,1,3,1,2.7,1
2016/11/16 10:26,3,1,3,1,6.3,3
2016/11/16 10:27,3.1,2,3.1,1,4.9,4
2016/11/16 10:28,3.1,2,3.1,1,4.5,4
2016/11/16 10:29,2.9,2,3.1,1,4.7,16
2016/11/16 10:30,2.7,2,2.9,1,3.3,1
2016/11/16 10:31,2.7,2,2.7,1,5.1,1
2016/11/16 10:32,2.6,2,2.6,1,7.7,1
2016/11/16 10:33,2.8,2,2.8,1,8.3,16
2016/11/16 10:34,2.8,2,2.8,1,5,2
2016/11/16 10:35,3,2,3,1,4.7,16
2016/11/16 10:36,3.1,1,3.1,1,5.6,16
2016/11/16 10:37,3.1,1,3.1,2,4.5,15
2016/11/16 10:38,3.1,1,3.1,2,3.9,15
2016/11/16 10:39,2.9,16,3.1,2,2.9,15
2016/11/16 10:40,2.9,16,2.9,2,2.2,3
2016/11/16 10:41,2.7,16,2.8,2,3.8,2
2016/11/16 10:42,2.6,1,2.6,2,5.2,3
2016/11/16 10:43,2.4,1,2.6,2,3.9,16
2016/11/16 10:44,2.4,1,2.4,2,4.9,16
2016/11/16 10:45,2.4,1,2.4,2,4.9,15
2016/11/16 10:46,2.1,1,2.3,1,3.2,16
2016/11/16 10:47,2,1,2.1,1,3.3,2
2016/11/16 10:48,2.1,1,2.1,1,7,1
2016/11/16 10:49,2.2,1,2.3,16,6.3,16
2016/11/16 10:50,2.7,1,2.7,16,7.6,2
2016/11/16 10:51,3,1,3,1,7.6,15
2016/11/16 10:52,3,1,3.1,1,7.8,14
2016/11/16 10:53,3.2,16,3.2,16,6.1,1
2016/11/16 10:54,3.3,16,3.3,16,7.1,15
2016/11/16 10:55,3.3,1,3.4,16,7.6,14
2016/11/16 10:56,3.4,1,3.4,16,3.7,1
2016/11/16 10:57,3.6,16,3.6,16,7.1,1
2016/11/16 10:58,3.7,16,3.7,16,8.1,15
2016/11/16 10:59,3.6,16,3.7,16,4.8,15
2016/11/16 11:00,3.2,16,3.6,16,2.7,2
2016/11/16 11:01,2.9,1,3.2,16,3.2,2
2016/11/16 11:02,2.7,1,2.9,16,2.2,4
2016/11/16 11:03,2.5,1,2.7,16,2.4,5
2016/11/16 11:04,2.2,2,2.4,16,2.6,4
2016/11/16 11:05,2,1,2.2,16,2.9,14
2016/11/16 11:06,2,1,2.1,16,3.7,16
2016/11/16 11:07,1.9,1,2,16,4.8,15
2016/11/16 11:08,1.8,1,1.9,16,8.3,15
2016/11/16 11:09,1.9,1,1.9,16,5.1,1